Regional Weather Roundup
Issued by NWS

Home | Current Version | Previous Version | Graphics & Text | Print | Product List | Glossary On
Versions: 1 2 3 4 5 6 7 8 9 10 11 12 13 14 15 16 17 18 19 20 21 22 23 24 25 26 27 28 29 30 31 32 33 34 35 36 37 38 39 40 41 42 43 44 45 46 47 48 49 50
000
ASUS43 KMPX 240601
RWRMN
WEATHER ROUNDUP FOR MINNESOTA
NATIONAL WEATHER SERVICE TWIN CITIES/CHANHASSEN MN
100 AM CDT SAT JUN 24 2017


NOTE: "FAIR" INDICATES FEW OR NO CLOUDS BELOW 12,000 FEET WITH NO
SIGNIFICANT WEATHER AND/OR OBSTRUCTIONS TO VISIBILITY. N/A MEANS
CURRENT SKY AND/OR WEATHER CONDITIONS ARE NOT AVAILABLE.

MNZ060>063-068>070-240700-
   Twin Cities Metro

CITY           SKY/WX    TMP DP  RH WIND       PRES   REMARKS
TWIN CITIES    MOCLDY    62  46  55 NW13      29.95R
6HR MIN TEMP:  61; 6HR MAX TEMP:  69;

ST PAUL        MOCLDY    62  48  60 NW9       29.95R
CRYSTAL        PTCLDY    59  45  59 W7        29.94R
BLAINE         PTCLDY    57  48  72 W5        29.95R
LAKEVILLE      CLEAR     55  48  76 W9        29.96S
EDEN PRAIRIE   PTCLDY    58  47  66 W7        29.95R
6HR MIN TEMP:  58; 6HR MAX TEMP:  70;

SOUTH ST PAUL  CLEAR     61  47  58 W8        29.94S
LAKE ELMO      CLOUDY    61  48  63 NW9       29.95S
$$
MNZ001>005-007-008-013>017-022>024-027-028-240700-
   Northwest Minnesota

CITY           SKY/WX    TMP DP  RH WIND       PRES   REMARKS
BEMIDJI        MOCLDY    51  41  67 W10       29.94S
HALLOCK        CLOUDY    54  45  71 W7        29.94S
ROSEAU           N/A     52  46  82 W9        29.91S
WARROAD        CLOUDY    54  48  82 W9        29.91R
CROOKSTON      CLOUDY    54  43  66 NW8       29.97F
FOSSTON        CLOUDY    48  41  76 W7        29.97S
DETROIT LAKES  MOCLDY    52  39  62 NW9       30.00S
MOORHEAD       CLEAR     52  37  58 W9        30.01F
PARK RAPIDS    PTCLDY    52  38  58 NW10      29.96S
MAHNOMEN       CLOUDY    52  41  65 W9        29.97F
$$
MNZ006-009>011-018-025>026-240700-
   North Central Minnesota

CITY           SKY/WX    TMP DP  RH WIND       PRES   REMARKS
BAUDETTE       CLOUDY    51  50  96 W9        29.89S
FLAG ISLAND    CLOUDY    54  50  87 NW15      29.87S
INTL FALLS     CLOUDY    53  50  89 W9        29.87S
6HR MIN TEMP:  53; 6HR MAX TEMP:  60; 6HR PCP: TRACE;

WASKISH        CLOUDY    55  48  76 W14G20    29.91S
BIG FORK       CLOUDY    54  46  76 W5        29.90S
LONGVILLE      MOCLDY    54  46  76 W7        29.93F
GRAND RAPIDS   CLOUDY    55  46  71 NW13      29.92S
CRANE LAKE     CLOUDY    54  50  87 W6        29.87R
ORR            CLOUDY    52  48  87 W8        29.85S
COOK           CLOUDY    52  50  93 W7        29.87F
WALKER         CLOUDY    52  42  69 W6        29.95S
$$
MNZ012-019>021-037-240700-
   Northeast Minnesota

CITY           SKY/WX    TMP DP  RH WIND       PRES   REMARKS
DULUTH         CLOUDY    52  49  89 NW12      29.87R
6HR MIN TEMP:  52; 6HR MAX TEMP:  62; 6HR PCP:  0.01;

ELY            RAIN      54  52  94 W5        29.84S
HIBBING        CLOUDY    52  48  86 NW14      29.88S
EVELETH        CLOUDY    54  46  73 NW14G21   29.88S
DULUTH HARBOR  CLOUDY    59  52  77 W18G24    29.86S
TWO HARBORS    CLOUDY    59  52  77 NW6       29.81R
SILVER BAY     CLOUDY    57  54  88 NW5       29.80R
GRAND MARAIS     N/A     60  53  77 NW9G22    29.74S
G MARAIS ARPRT CLOUDY    54  46  76 W7        29.80R
$$
MNZ029>031-032-039>041-046>048-054>057-064-240700-
   West Central Minnesota

CITY           SKY/WX    TMP DP  RH WIND       PRES   REMARKS
FERGUS FALLS   MOCLDY    52  41  66 NW7       30.00S
WHEATON        CLEAR     54  41  62 W9        30.05S
MORRIS         CLEAR     54  43  66 NW8       30.02S
ALEXANDRIA     PTCLDY    54  43  66 W10       30.01S
ELBOW LAKE     FAIR      53  40  61 W10       30.02S
WADENA         MOCLDY    52  41  66 NW8       29.98S
GLENWOOD       CLEAR     54  43  66 W8        30.01S
APPLETON       MOCLDY    52  46  82 W3        30.04S
BENSON         MOCLDY    54  43  66 NW7       30.05R
ORTONVILLE     CLEAR     55  43  62 W7        30.05S
MADISON        CLEAR     54  46  76 W6        30.06R
WILLMAR        FAIR      55  46  71 NW7       30.03S
$$
MNZ033>034-036-042>043-049>051-058-059-240700-
   Central Minnesota

CITY           SKY/WX    TMP DP  RH WIND       PRES   REMARKS
ST CLOUD       CLOUDY    57  46  66 NW9       29.96R
6HR MIN TEMP:  56; 6HR MAX TEMP:  67;

SAUK CENTRE    MOCLDY    55  43  62 NW8       29.99S
PAYNESVILLE    PTCLDY    53  43  69 W7        29.99S
AITKIN         PTCLDY    50  46  87 W3        29.92S
PINE RIVER     MOCLDY    54  46  76 W5        29.98S
BRAINERD       MOCLDY    55  47  74 NW8       29.96R
STAPLES        CLOUDY    54  41  62 NW8       29.97S
LONG PRAIRIE   MOCLDY    54  41  62 W7        29.99R
LITTLE FALLS   CLOUDY    55  43  62 NW5       29.97S
LITCHFIELD     MOCLDY    61  46  59 NW13      30.00R
BUFFALO        MOCLDY    58  47  67 W7        29.97S
MAPLE LAKE     CLOUDY    58  49  72 W8        29.98R
HUTCHINSON     PTCLDY    55  49  79 W10       30.00S
$$
MNZ037-044-045-052-053-240700-
   East Central Minnesota

CITY           SKY/WX    TMP DP  RH WIND       PRES   REMARKS
PRINCETON      PTCLDY    55  48  76 W5        29.95S
MORA           MOCLDY    55  46  71 W6        29.95R
CAMBRIDGE      CLEAR     57  46  67 W3        29.93R
RUSH CITY      CLOUDY    55  50  82 CALM      29.93S
MOOSE LAKE     CLOUDY    54  46  76 W5        29.89S
HINCKLEY       FAIR      54  50  87 W3        29.92S
CLOQUET        CLOUDY    54  46  76 W6        29.89R
MCGREGOR       PTCLDY    54  46  76 W7        29.92S
$$
MNZ071>073-080-081-089-090-097-098-240700-
   Southwest Minnesota

CITY           SKY/WX    TMP DP  RH WIND       PRES   REMARKS
MONTEVIDEO     PTCLDY    54  43  66 NW5       30.04S
GRANITE FALLS  CLEAR     53  46  78 W8        30.06S
CANBY          CLEAR     53  43  70 CALM      30.08R
MARSHALL       CLEAR     52  44  74 W10       30.06S
REDWOOD FALLS  CLEAR     54  44  69 NW9       30.03R
OLIVIA         CLEAR     54  45  71 NW8       30.02R
PIPESTONE      CLEAR     54  43  66 NW6       30.09R
WINDOM         CLEAR     52  45  76 W9        30.05S
WORTHINGTON    CLEAR     52  43  71 W10       30.08R
JACKSON        PTCLDY    54  45  71 W9        30.06R
TRACY          CLEAR     56  44  65 NW8       30.07R
SLAYTON        PTCLDY    49  42  77 NW7       30.09R
$$
MNZ065>067-074>077-082>085-091>093-240700-
   South Central Minnesota

CITY           SKY/WX    TMP DP  RH WIND       PRES   REMARKS
MANKATO        PTCLDY    56  50  80 W7        30.00S
NEW ULM        PTCLDY    55  46  71 W10       30.01S
ST JAMES       PTCLDY    54  46  76 W8        30.03S
FAIRMONT       CLEAR     57  46  66 W12       30.03S
GLENCOE        MOCLDY    57  52  82 W5        29.98S
FARIBAULT      PTCLDY    57  48  72 W10       29.98S
OWATONNA       PTCLDY    57  48  72 W9G18     29.98S
WASECA         MOCLDY    52  48  87 W5        30.01S
ALBERT LEA     CLEAR     57  50  77 W5        30.00S
$$
MNZ078>079-086>088-094>096-240700-
   Southeast Minnesota

CITY           SKY/WX    TMP DP  RH WIND       PRES   REMARKS
ROCHESTER      MOCLDY    57  52  83 W10       29.97R
6HR MIN TEMP:  57; 6HR MAX TEMP:  65;

RED WING       MOCLDY    63  48  59 NW6       29.93R
STANTON        CLEAR     59  48  67 W9        29.95S
DODGE CENTER   CLEAR     57  48  72 W9        29.97S
WINONA         CLOUDY    61  54  77 NW5       29.93R
AUSTIN         CLEAR     57  48  72 W10       29.98S
PRESTON        PTCLDY    56  50  80 NW12      29.97R
$$
ABBREVIATIONS USED IN REMARKS
   TC - TEMPERATURES IN CELSIUS
  WCI - WIND CHILL INDEX
   HX - HEAT INDEX
  VSB - VISIBILITY
$$




USA.gov is the U.S. government's official web portal to all federal, state and local government web resources and services.